TimeEST,TemperatureF,Dew PointF,Humidity,Sea Level PressureIn,VisibilityMPH,Wind Direction,Wind SpeedMPH,Gust SpeedMPH,PrecipitationIn,Events,Conditions,WindDirDegrees,DateUTC
12:56 AM,10.0,7.2,88,30.52,7.0,West,6.9,-,N/A,,Clear,280,2013-12-12 05:56:00
1:32 AM,8.6,6.8,92,30.49,6.0,West,8.1,-,N/A,,Mostly Cloudy,260,2013-12-12 06:32:00
1:56 AM,12.0,8.1,84,30.54,6.0,West,6.9,-,0.00,,Overcast,270,2013-12-12 06:56:00
2:37 AM,12.2,8.6,85,30.48,6.0,WNW,5.8,-,N/A,,Partly Cloudy,300,2013-12-12 07:37:00
2:56 AM,12.0,8.1,84,30.53,6.0,WNW,8.1,-,N/A,,Clear,290,2013-12-12 07:56:00
3:56 AM,11.1,7.2,84,30.53,6.0,WNW,10.4,-,N/A,,Clear,290,2013-12-12 08:56:00
4:56 AM,9.1,4.1,80,30.53,7.0,West,8.1,-,N/A,,Clear,280,2013-12-12 09:56:00
5:56 AM,6.1,2.1,84,30.56,6.0,West,6.9,-,N/A,,Clear,280,2013-12-12 10:56:00
6:56 AM,5.0,1.0,84,30.57,6.0,WNW,6.9,-,N/A,,Clear,290,2013-12-12 11:56:00
7:56 AM,3.0,-0.9,84,30.57,5.0,West,5.8,-,N/A,,Clear,270,2013-12-12 12:56:00
8:56 AM,3.0,0.1,88,30.57,4.0,WSW,4.6,-,N/A,,Clear,250,2013-12-12 13:56:00
9:56 AM,8.1,2.1,77,30.56,5.0,WSW,9.2,-,N/A,,Haze,250,2013-12-12 14:56:00
10:56 AM,11.1,3.0,70,30.57,5.0,West,9.2,-,N/A,,Haze,260,2013-12-12 15:56:00
11:56 AM,14.0,0.1,54,30.54,6.0,WSW,8.1,-,N/A,,Haze,250,2013-12-12 16:56:00
12:56 PM,17.1,1.0,50,30.50,6.0,WSW,12.7,-,N/A,,Haze,250,2013-12-12 17:56:00
1:56 PM,19.0,1.0,46,30.47,6.0,SW,10.4,-,N/A,,Haze,230,2013-12-12 18:56:00
2:56 PM,19.0,1.0,46,30.46,6.0,SW,13.8,-,N/A,,Haze,230,2013-12-12 19:56:00
3:56 PM,20.1,0.1,42,30.43,7.0,SW,15.0,-,N/A,,Clear,220,2013-12-12 20:56:00
4:56 PM,19.0,1.0,46,30.42,6.0,SW,13.8,-,N/A,,Haze,220,2013-12-12 21:56:00
5:56 PM,18.1,2.1,50,30.40,8.0,SW,12.7,-,N/A,,Clear,220,2013-12-12 22:56:00
6:56 PM,17.1,3.0,54,30.40,8.0,SW,11.5,-,N/A,,Clear,220,2013-12-12 23:56:00
7:56 PM,18.1,6.1,59,30.39,8.0,SW,12.7,-,N/A,,Clear,220,2013-12-13 00:56:00
8:56 PM,17.1,7.2,65,30.38,7.0,SW,9.2,-,N/A,,Clear,230,2013-12-13 01:56:00
9:56 PM,15.1,6.1,68,30.38,7.0,WSW,10.4,-,N/A,,Clear,240,2013-12-13 02:56:00
10:56 PM,17.1,7.2,65,30.37,7.0,WSW,13.8,-,N/A,,Clear,240,2013-12-13 03:56:00
11:56 PM,18.1,7.2,62,30.36,7.0,WSW,10.4,-,N/A,,Clear,240,2013-12-13 04:56:00